• In Germany
  • List of Countries
  • For 7 days
  • Water Temperature
  • Satellite Maps
  • Weather Map
  • Weather Widgets
  • user-avatar
    Login

    Hourly Weather Dori

    Today, 20 May, Sunday

    Time Temperature Precipitation Wind Pressure Humidity
    00:00 +39°C° 0 mm 3 mps 732 mmHg 23%
    01:00 +38°C° 0 mm 3 mps 732 mmHg 25%
    02:00 +38°C° 0 mm 3 mps 731 mmHg 26%
    03:00 +37°C° 0 mm 4 mps 731 mmHg 28%
    04:00 +37°C° 0 mm 4 mps 731 mmHg 29%
    05:00 +36°C° 0 mm 5 mps 731 mmHg 31%
    06:00 +36°C° 0 mm 5 mps 732 mmHg 34%
    07:00 +38°C° 0 mm 6 mps 732 mmHg 32%
    08:00 +39°C° 0 mm 6 mps 732 mmHg 31%
    09:00 +40°C° 0 mm 7 mps 733 mmHg 29%
    10:00 +42°C° 0 mm 6 mps 732 mmHg 25%
    11:00 +45°C° 0 mm 5 mps 732 mmHg 21%
    12:00 +45°C° 0 mm 6 mps 732 mmHg 20%
    13:00 +46°C° 0 mm 5 mps 731 mmHg 17%
    14:00 +46°C° 0 mm 3 mps 731 mmHg 15%
    15:00 +46°C° 0 mm 2 mps 730 mmHg 12%
    16:00 +46°C° 0 mm 2 mps 730 mmHg 12%
    17:00 +45°C° 0 mm 3 mps 730 mmHg 12%
    18:00 +45°C° 0 mm 3 mps 730 mmHg 13%
    19:00 +44°C° 0 mm 3 mps 730 mmHg 14%
    20:00 +42°C° 0 mm 2 mps 731 mmHg 15%
    21:00 +41°C° 0 mm 2 mps 731 mmHg 16%
    22:00 +40°C° 0 mm 2 mps 731 mmHg 17%
    23:00 +40°C° 0 mm 2 mps 731 mmHg 19%

    Tomorrow, 21 May, Monday

    Time Temperature Precipitation Wind Pressure Humidity
    00:00 +39°C° 0 mm 2 mps 731 mmHg 20%
    01:00 +39°C° 0 mm 2 mps 731 mmHg 20%
    02:00 +38°C° 0 mm 2 mps 731 mmHg 21%
    03:00 +38°C° 0 mm 2 mps 730 mmHg 22%
    04:00 +38°C° 0 mm 3 mps 730 mmHg 23%
    05:00 +38°C° 0 mm 4 mps 731 mmHg 23%
    06:00 +38°C° 0 mm 4 mps 731 mmHg 24%
    07:00 +40°C° 0 mm 5 mps 731 mmHg 23%
    08:00 +42°C° 0 mm 6 mps 732 mmHg 22%
    09:00 +44°C° 0 mm 7 mps 732 mmHg 21%
    10:00 +45°C° 0 mm 6 mps 732 mmHg 19%
    11:00 +46°C° 0 mm 5 mps 732 mmHg 17%
    12:00 +47°C° 0 mm 5 mps 731 mmHg 15%
    13:00 +48°C° 0 mm 4 mps 731 mmHg 14%
    14:00 +47°C° 0 mm 2 mps 730 mmHg 13%
    15:00 +46°C° 0 mm 1 mps 729 mmHg 12%
    16:00 +46°C° 0 mm 1 mps 729 mmHg 12%
    17:00 +45°C° 0 mm 1 mps 729 mmHg 12%
    18:00 +44°C° 0 mm 1 mps 729 mmHg 13%
    19:00 +44°C° 0 mm 1 mps 729 mmHg 13%
    20:00 +43°C° 0 mm 1 mps 730 mmHg 14%
    21:00 +43°C° 0 mm 2 mps 730 mmHg 14%
    22:00 +42°C° 0 mm 2 mps 730 mmHg 15%
    23:00 +43°C° 0 mm 3 mps 730 mmHg 15%

    Day after tomorrow, 22 May, Tuesday

    Time Temperature Precipitation Wind Pressure Humidity
    00:00 +42°C° 0 mm 3 mps 730 mmHg 16%
    01:00 +42°C° 0 mm 5 mps 730 mmHg 20%
    02:00 +41°C° 0 mm 6 mps 730 mmHg 24%
    03:00 +40°C° 0 mm 7 mps 730 mmHg 28%
    04:00 +39°C° 0 mm 7 mps 730 mmHg 32%
    05:00 +39°C° 0 mm 7 mps 730 mmHg 36%
    06:00 +38°C° 0 mm 7 mps 730 mmHg 39%
    07:00 +39°C° 0 mm 8 mps 731 mmHg 37%
    08:00 +40°C° 0 mm 8 mps 731 mmHg 35%
    09:00 +42°C° 0 mm 9 mps 732 mmHg 33%
    10:00 +44°C° 0 mm 8 mps 732 mmHg 29%
    11:00 +45°C° 0 mm 7 mps 732 mmHg 25%
    12:00 +47°C° 0 mm 7 mps 732 mmHg 22%
    13:00 +47°C° 0 mm 6 mps 731 mmHg 20%
    14:00 +48°C° 0 mm 4 mps 730 mmHg 18%
    15:00 +47°C° 0 mm 3 mps 729 mmHg 16%
    16:00 +47°C° 0 mm 3 mps 729 mmHg 15%
    17:00 +47°C° 0 mm 2 mps 729 mmHg 14%
    18:00 +46°C° 0 mm 2 mps 729 mmHg 14%
    19:00 +46°C° 0 mm 2 mps 730 mmHg 15%
    20:00 +45°C° 0 mm 3 mps 731 mmHg 17%
    21:00 +44°C° 0 mm 4 mps 731 mmHg 19%
    22:00 +43°C° 0 mm 5 mps 731 mmHg 23%
    23:00 +42°C° 0 mm 6 mps 731 mmHg 27%

    23 May, Wednesday

    Time Temperature Precipitation Wind Pressure Humidity
    00:00 +41°C° 0 mm 7 mps 731 mmHg 31%
    01:00 +40°C° 0 mm 8 mps 731 mmHg 35%
    02:00 +39°C° 0 mm 8 mps 731 mmHg 39%
    03:00 +38°C° 0 mm 9 mps 731 mmHg 42%
    04:00 +38°C° 0 mm 8 mps 731 mmHg 43%
    05:00 +37°C° 0 mm 8 mps 731 mmHg 45%
    06:00 +36°C° 0 mm 7 mps 732 mmHg 46%
    07:00 +38°C° 0 mm 8 mps 732 mmHg 43%
    08:00 +39°C° 0 mm 8 mps 733 mmHg 41%
    09:00 +40°C° 0 mm 9 mps 734 mmHg 38%
    10:00 +43°C° 0 mm 8 mps 733 mmHg 34%
    11:00 +44°C° 0 mm 7 mps 733 mmHg 30%
    12:00 +46°C° 0 mm 7 mps 733 mmHg 26%
    13:00 +46°C° 0 mm 6 mps 732 mmHg 23%
    14:00 +47°C° 0 mm 4 mps 732 mmHg 20%
    15:00 +47°C° 0 mm 3 mps 731 mmHg 17%
    16:00 +46°C° 0 mm 3 mps 731 mmHg 17%
    17:00 +46°C° 0 mm 3 mps 731 mmHg 17%
    18:00 +45°C° 0 mm 3 mps 731 mmHg 17%
    19:00 +45°C° 0 mm 3 mps 732 mmHg 18%
    20:00 +44°C° 0 mm 4 mps 732 mmHg 19%
    21:00 +44°C° 0 mm 4 mps 733 mmHg 20%
    22:00 +43°C° 0 mm 5 mps 733 mmHg 23%
    23:00 +42°C° 0 mm 5 mps 733 mmHg 27%

    24 May, Thursday

    Time Temperature Precipitation Wind Pressure Humidity
    00:00 +41°C° 0 mm 6 mps 733 mmHg 30%
    01:00 +40°C° 0 mm 6 mps 732 mmHg 33%
    02:00 +39°C° 0 mm 6 mps 732 mmHg 35%
    03:00 +38°C° 0 mm 6 mps 732 mmHg 38%
    04:00 +38°C° 0 mm 6 mps 732 mmHg 39%
    05:00 +37°C° 0 mm 5 mps 732 mmHg 39%
    06:00 +36°C° 0 mm 5 mps 732 mmHg 40%
    07:00 +39°C° 0 mm 5 mps 732 mmHg 37%
    08:00 +40°C° 0 mm 6 mps 733 mmHg 35%
    09:00 +41°C° 0 mm 6 mps 734 mmHg 32%
    10:00 +42°C° 0 mm 5 mps 733 mmHg 29%
    11:00 +45°C° 0 mm 5 mps 733 mmHg 27%
    12:00 +45°C° 0 mm 4 mps 732 mmHg 24%
    13:00 +45°C° 0 mm 4 mps 731 mmHg 22%
    14:00 +46°C° 0 mm 3 mps 731 mmHg 20%
    15:00 +46°C° 0 mm 2 mps 730 mmHg 18%
    16:00 +46°C° 0 mm 2 mps 730 mmHg 18%
    17:00 +46°C° 0 mm 2 mps 730 mmHg 18%
    18:00 +44°C° 0 mm 1 mps 730 mmHg 17%
    19:00 +45°C° 0 mm 2 mps 730 mmHg 19%
    20:00 +44°C° 0 mm 3 mps 731 mmHg 21%
    21:00 +43°C° 0 mm 3 mps 731 mmHg 22%
    22:00 +42°C° 0 mm 4 mps 731 mmHg 25%
    23:00 +41°C° 0 mm 5 mps 731 mmHg 27%

    25 May, Friday

    Time Temperature Precipitation Wind Pressure Humidity
    00:00 +40°C° 0 mm 7 mps 730 mmHg 30%
    01:00 +40°C° 0 mm 7 mps 730 mmHg 31%
    02:00 +39°C° 0 mm 7 mps 730 mmHg 32%
    03:00 +39°C° 0 mm 7 mps 730 mmHg 33%
    04:00 +38°C° 0 mm 6 mps 730 mmHg 33%
    05:00 +38°C° 0 mm 6 mps 730 mmHg 33%
    06:00 +38°C° 0 mm 6 mps 731 mmHg 34%
    07:00 +39°C° 0 mm 7 mps 731 mmHg 32%
    08:00 +40°C° 0 mm 8 mps 731 mmHg 30%
    09:00 +42°C° 0 mm 9 mps 732 mmHg 28%
    10:00 +44°C° 0 mm 8 mps 732 mmHg 25%
    11:00 +45°C° 0 mm 8 mps 731 mmHg 23%
    12:00 +46°C° 0 mm 7 mps 731 mmHg 21%
    13:00 +46°C° 0 mm 7 mps 730 mmHg 20%
    14:00 +47°C° 0 mm 6 mps 729 mmHg 19%
    15:00 +47°C° 0 mm 6 mps 729 mmHg 18%
    16:00 +47°C° 0 mm 5 mps 729 mmHg 18%
    17:00 +45°C° 0 mm 4 mps 729 mmHg 18%
    18:00 +45°C° 0 mm 4 mps 729 mmHg 18%
    19:00 +44°C° 0 mm 4 mps 729 mmHg 19%
    20:00 +43°C° 0 mm 3 mps 729 mmHg 20%
    21:00 +43°C° 0 mm 3 mps 730 mmHg 21%
    22:00 +42°C° 0 mm 4 mps 729 mmHg 21%
    23:00 +42°C° 0 mm 4 mps 729 mmHg 22%
    Show more